Location: Unspecified
(0.0000°N, 0.0000°E)
Time: 23:00:55
(UTC+00:00)

Courier 1B Rocket - Pass Details

Date: 16 December 2018
Orbit: 920 x 1202 km, 28.3° (Epoch: 18 January)

Event Time Altitude Azimuth Distance (km) Brightness Sun altitude
Rises 03:15:32 0° 222° (SW) 3,636 - -36.2°
Reaches altitude 10° 03:18:34 10° 211° (SSW) 2,657 - -35.5°
Exits shadow 03:21:28 22° 189° (S) 1,898 6.6 -34.9°
Maximum altitude 03:24:00 29° 152° (SSE) 1,616 6.5 -34.3°
Drops below altitude 10° 03:29:18 10° 93° (E) 2,603 7.9 -33.1°
Sets 03:32:14 0° 82° (E) 3,550 8.7 -32.5°
